Content
SEND FEEDBACK

Daily
Averages
Monthly
Summary
Australia

MYRTLEFORD, VICTORIA


Home > Oceania > Australia > Victoria
Elevation: 728 feet     Latitude: 36 34S     Longitude: 146 43E

WEATHER
 
SELECT A DAY
Number of Records: 186,275;   Date Range: 2/21/03 - 10/19/14
 
SHARE

PRINT THIS DATA

[ ← Previous Day ]
WEATHER ALMANAC - JANUARY 31, 2013
[ Next Day → ]
[ °C ]   °F
Weather ElementAverageHighLow
Temperature72.5 °F89.6 °F (2:00 pm)48.2 °F (7:00 am)
Dewpoint36.9 °F51.8 °F (8:52 pm)23 °F (5:00 pm)
Humidity33.6 %71 % (6:00 am)4 % (6:00 pm)
Barometer29.78 in29.89 in (12:00 am)29.65 in (6:23 pm)
Wind Speed11.1 mph26.5 mph (8:00 pm)
Wind Gust40.3 mph (8:00 pm)
Weather ElementAverage
Wind DirectionSSW (204.1 °)

Weather ElementTotal
Precipitation---
Cooling Degree Days3.9 (Base 65)
Growing Degree Days18.9 (Base 50)
Averaged from 39 records on January 31, 2013
WEATHER CONDITIONS BREAKOUT
WIND DIRECTION BREAKOUT
WEATHER BY HOUR - JANUARY 31, 2013
[ °C ]   °F
Local TimeTemperatureDewpointHumidityBarometerVisibilityWind DirectionWind SpeedGust SpeedPrecipitationEventsConditions
12:00 AM59.0 °F39.2 °F48 %29.89 inEast (100°)4.6 mph
1:00 AM55.4 °F35.6 °F47 %29.89 inCalm
2:00 AM55.4 °F41.0 °F58 %29.89 inCalm
3:00 AM53.0 °F41.0 °F54 %29.88 inCalm
3:00 AM53.6 °F41.0 °F62 %29.89 inCalm
4:00 AM50.0 °F39.2 °F66 %29.89 inCalm
5:00 AM50.0 °F39.2 °F66 %29.89 inCalm
6:00 AM49.0 °F41.0 °F64 %29.87 inCalm
6:00 AM50.0 °F41.0 °F71 %29.89 inCalm
7:00 AM48.2 °F39.2 °F71 %29.89 inCalm
8:00 AM59.0 °F42.8 °F55 %29.89 inSouth (170°)3.5 mph
9:00 AM66.0 °F41.0 °F29 %29.88 inSouth (170°)2.3 mph
9:00 AM66.2 °F41.0 °F40 %29.89 inSouth (170°)2.3 mph
10:00 AM73.4 °F39.2 °F29 %29.89 inSouth (190°)1.2 mph
11:00 AM78.8 °F35.6 °F21 %29.86 inNorth (350°)9.2 mph
12:00 PM82.0 °F32.0 °F8 %29.82 inNorth11.5 mph
12:00 PM82.4 °F32.0 °F16 %29.83 inNorth (360°)11.5 mph
1:00 PM86.0 °F30.2 °F13 %29.80 inNNW (330°)15.0 mph
2:00 PM89.6 °F28.4 °F11 %29.74 inNNW (330°)10.4 mph
3:00 PM87.8 °F26.6 °F11 %29.71 inNW (320°)15.0 mph
3:00 PM87.0 °F26.0 °F5 %29.72 inNW (320°)15.0 mph
4:00 PM89.6 °F24.8 °F10 %29.68 inNW (310°)10.4 mph
4:51 PM87.8 °F24.8 °F10 %29.68 inWNW (290°)17.3 mph28.8 mph
5:00 PM89.6 °F23.0 °F9 %29.68 inNW (310°)18.4 mph
6:00 PM89.0 °F25.0 °F4 %29.66 inWest (280°)15.0 mph
6:00 PM89.6 °F24.8 °F10 %29.68 inWest (270°)15.0 mph
6:23 PM86.0 °F28.4 °F12 %29.65 inNW (320°)24.2 mph
6:26 PM86.0 °F26.6 °F12 %29.68 inWest (280°)23.0 mph
6:33 PM86.0 °F30.2 °F13 %29.68 inWNW (290°)19.6 mph31.1 mph
7:00 PM84.2 °F32.0 °F15 %29.68 inWest (280°)18.4 mph
7:24 PM84.2 °F37.4 °F19 %29.68 inWest (270°)18.4 mph31.1 mph
7:54 PM80.6 °F41.0 °F24 %29.68 inWest (260°)19.6 mph34.5 mph
8:00 PM77.0 °F48.2 °F36 %29.71 inWest (260°)26.5 mph40.3 mph
8:52 PM71.6 °F51.8 °F50 %29.74 inWSW (240°)21.9 mph33.4 mph
9:00 PM69.0 °F50.0 °F40 %29.74 inSW (220°)21.9 mph
9:00 PM69.8 °F50.0 °F49 %29.74 inSW (220°)21.9 mph
9:09 PM68.0 °F50.0 °F52 %29.74 inSSW (210°)17.3 mph28.8 mph
10:00 PM68.0 °F50.0 °F52 %29.77 inSSW (210°)12.7 mph
11:00 PM68.0 °F48.2 °F49 %29.77 inSW (220°)11.5 mph
Hourly data recorded from YWGT, located miles away from Myrtleford, Victoria







STORIES FROM OUR PARTNERS